Regional Weather Roundup
Issued by NWS

Home | Current Version | Previous Version | Text Only | Print | Product List | Glossary Off
Versions: 1 2 3 4 5 6 7 8 9 10 11 12 13 14 15 16 17 18 19 20 21 22 23 24 25 26 27 28 29 30 31 32 33 34 35 36 37 38 39 40 41 42 43 44 45 46 47 48 49 50

000
ASUS43 KLSX 052059
RWRMO

WEATHER SUMMARY FOR MISSOURI
NATIONAL WEATHER SERVICE SPRINGFIELD MO
300 PM CST THU MAR 05 2015

NOTE: "FAIR" INDICATES FEW OR NO CLOUDS BELOW 12,000 FEET WITH NO
       SIGNIFICANT WEATHER AND/OR OBSTRUCTIONS TO VISIBILITY.
       CURRENT SKY AND/OR WEATHER CONDITIONS ARE NOT AVAILABLE FOR
       CHILLICOTHE AND FARMINGTON.

MOZ001>031-035>038-043-044-053-054-052200-
...NORTHERN AND WESTERN MISSOURI...

CITY           SKY/WX    TMP DP  RH WIND       PRES   REMARKS
KANSAS CTY INT SUNNY     31   4  31 W7        30.49F WCI  24
KANSAS C DTWN  SUNNY     31   2  29 VRB3      30.51F
LEE`S SUMMIT   SUNNY     30   3  31 VRB3      30.50F
ST JOSEPH      SUNNY     28   2  32 VRB5      30.51F WCI  23
CHILLICOTHE      N/A     28   4  35 VRB5      30.53F WCI  23
KIRKSVILLE     SUNNY     25   3  38 VRB5      30.51F WCI  19

$$
MOZ066>068-077>081-088>096-101>105-052200-
...SOUTHWEST MISSOURI...

CITY           SKY/WX    TMP DP  RH WIND       PRES   REMARKS
SPRINGFIELD    SUNNY     32  12  43 NW7       30.48F WCI  26
JOPLIN         SUNNY     34  15  46 NW6       30.51F WCI  29

$$
MOZ032>034-039>042-045>050-055>058-069>072-052200-
...CENTRAL MISSOURI...

CITY           SKY/WX    TMP DP  RH WIND       PRES   REMARKS
COLUMBIA       SUNNY     27   9  46 NW8       30.51F WCI  19
JEFFERSON CITY SUNNY     27   8  44 W9        30.54F WCI  18
ROLLA          SUNNY     28   9  44 W14       30.47F WCI  17
SEDALIA        SUNNY     28  11  48 W7        30.53F WCI  21
OSAGE BEACH    SUNNY     30   9  40 NW3       30.51S

$$
MOZ051-052-059>065-052200-
...EAST CENTRAL MISSOURI...

CITY           SKY/WX    TMP DP  RH WIND       PRES   REMARKS
ST LOUIS INTL  MOSUNNY   25   9  50 NW12      30.55R WCI  14
SPIRIT OF STL  MOSUNNY   27   9  46 NW10      30.54F WCI  17
ST CHARLES     SUNNY     23   6  48 NW13      30.56F WCI  11

$$
MOZ072>076-082>087-097>100-106>115-052200-
...SOUTH CENTRAL AND SOUTHEAST MISSOURI...

CITY           SKY/WX    TMP DP  RH WIND       PRES   REMARKS
CAPE GIRARDEAU SUNNY     26  10  50 N14       30.53F WCI  14
FARMINGTON     SUNNY     27   7  43 N8        30.51S WCI  18
POPLAR BLUFF   SUNNY     27  13  55 SE12      30.50F WCI  17
WEST PLAINS    SUNNY     31   5  33 N15G25    30.47F WCI  20

$$



USA.gov is the U.S. government's official web portal to all federal, state and local government web resources and services.